BEIDOU-2 IGSO-2

Last updated on Wed Sep 09 2026 00:02:59 GMT+0000 (Coordinated Universal Time)

1 37256U 10068A 26249.96484994 -.00000160 00000+0 00000+0 0 9990 2 37256 47.4023 270.8063 0057631 215.7220 313.2912 1.00255167 57619
UTC large
Height (km)
Speed (km/s)
/
Latitude / Longitude
Inclination (degrees)
Orbital Period (minutes)
Azimuth
Elevation
Range (km)
Doppler Factor

Next 0 passes for location: London (51.5072 / 0.1276)

No passes found over London.
BEIDOU-2 IGSO-2